UAL126 KLAX-KPHX

Flight info

Callsign UAL126
Flight time 1h 3m
Altitude 39000
Route DOTSS2 CNERY BLH HYDRR1
Aircraft A320/M-SDE3FGHIRWY/LB1

Departure

Time 2026-05-07 22:28
Airport Los Angeles International Airport (KLAX)

Arrival

Time 2026-05-07 23:32
Airport Phoenix Sky Harbor International Airport (KPHX)
Time Latitude Longitude Altitude Speed Heading
2026-05-07 21:45 33.94065 -118.40500 126 ft 0 kts 82°
2026-05-07 22:14 33.94063 -118.40524 124 ft 4 kts 97°
2026-05-07 22:15 33.94071 -118.40552 121 ft 4 kts 140°
2026-05-07 22:15 33.94083 -118.40560 123 ft 0 kts 173°
2026-05-07 22:21 33.94075 -118.40559 121 ft 3 kts 173°
2026-05-07 22:21 33.94038 -118.40554 124 ft 7 kts 173°
2026-05-07 22:21 33.93979 -118.40545 123 ft 10 kts 173°
2026-05-07 22:22 33.93922 -118.40537 123 ft 7 kts 173°
2026-05-07 22:22 33.93864 -118.40529 125 ft 10 kts 173°
2026-05-07 22:22 33.93831 -118.40469 126 ft 11 kts 85°
2026-05-07 22:22 33.93841 -118.40366 124 ft 14 kts 83°
2026-05-07 22:23 33.93854 -118.40242 123 ft 16 kts 83°
2026-05-07 22:23 33.93868 -118.40098 123 ft 19 kts 83°
2026-05-07 22:23 33.93885 -118.39933 122 ft 21 kts 83°
2026-05-07 22:23 33.93902 -118.39750 123 ft 23 kts 83°
2026-05-07 22:24 33.93921 -118.39569 126 ft 21 kts 82°
2026-05-07 22:24 33.93940 -118.39387 123 ft 22 kts 83°
2026-05-07 22:24 33.93962 -118.39193 126 ft 24 kts 83°
2026-05-07 22:24 33.93981 -118.39003 126 ft 22 kts 83°
2026-05-07 22:25 33.93999 -118.38822 122 ft 21 kts 83°
2026-05-07 22:25 33.94017 -118.38654 126 ft 21 kts 83°
2026-05-07 22:25 33.94034 -118.38473 125 ft 23 kts 83°
2026-05-07 22:25 33.94052 -118.38290 123 ft 19 kts 83°
2026-05-07 22:26 33.94067 -118.38150 126 ft 14 kts 83°
2026-05-07 22:26 33.94076 -118.38062 126 ft 10 kts 83°
2026-05-07 22:26 33.94052 -118.38000 126 ft 9 kts 152°
2026-05-07 22:26 33.93999 -118.37994 123 ft 6 kts 194°
2026-05-07 22:27 33.93984 -118.38034 126 ft 0 kts 264°
2026-05-07 22:27 33.93982 -118.38053 124 ft 12 kts 264°
2026-05-07 22:27 33.93941 -118.38443 124 ft 81 kts 263°
2026-05-07 22:28 33.93848 -118.39353 126 ft 135 kts 263°
2026-05-07 22:28 33.93724 -118.40552 527 ft 144 kts 264°
2026-05-07 22:28 33.93589 -118.41771 1087 ft 148 kts 262°
2026-05-07 22:28 33.93456 -118.43009 1758 ft 152 kts 263°
2026-05-07 22:29 33.93326 -118.44320 2223 ft 170 kts 264°
2026-05-07 22:29 33.93088 -118.45806 2492 ft 194 kts 248°
2026-05-07 22:29 33.92285 -118.47239 2748 ft 221 kts 233°
2026-05-07 22:29 33.91279 -118.48768 3127 ft 246 kts 234°
2026-05-07 22:30 33.90145 -118.50450 3715 ft 261 kts 232°
2026-05-07 22:30 33.88963 -118.52136 4534 ft 267 kts 231°
2026-05-07 22:30 33.87743 -118.53798 4868 ft 270 kts 225°
2026-05-07 22:30 33.86184 -118.55077 4979 ft 273 kts 208°
2026-05-07 22:31 33.84344 -118.55677 5026 ft 278 kts 187°
2026-05-07 22:31 33.82398 -118.55475 5797 ft 284 kts 169°
2026-05-07 22:31 33.80455 -118.54953 6695 ft 287 kts 169°
2026-05-07 22:31 33.78496 -118.54431 7502 ft 291 kts 168°
2026-05-07 22:32 33.76504 -118.53901 8356 ft 294 kts 167°
2026-05-07 22:32 33.74497 -118.53365 9219 ft 298 kts 167°
2026-05-07 22:32 33.72520 -118.52596 10044 ft 301 kts 153°
2026-05-07 22:32 33.70688 -118.51229 10365 ft 321 kts 137°
2026-05-07 22:33 33.69150 -118.49183 10628 ft 339 kts 121°
2026-05-07 22:33 33.68114 -118.46623 11224 ft 344 kts 107°
2026-05-07 22:33 33.67322 -118.43905 11966 ft 346 kts 108°
2026-05-07 22:33 33.66512 -118.41169 12700 ft 349 kts 108°
2026-05-07 22:34 33.65690 -118.38418 13441 ft 352 kts 108°
2026-05-07 22:34 33.64878 -118.35546 14137 ft 354 kts 103°
2026-05-07 22:34 33.64485 -118.32748 14736 ft 355 kts 92°
2026-05-07 22:34 33.64463 -118.29775 15361 ft 358 kts 88°
2026-05-07 22:35 33.64471 -118.26780 15992 ft 360 kts 89°
2026-05-07 22:35 33.64473 -118.23762 16621 ft 363 kts 89°
2026-05-07 22:35 33.64474 -118.20720 17250 ft 366 kts 88°
2026-05-07 22:35 33.64475 -118.17646 17883 ft 369 kts 88°
2026-05-07 22:36 33.64472 -118.14553 18495 ft 372 kts 89°
2026-05-07 22:36 33.64468 -118.11430 19063 ft 376 kts 88°
2026-05-07 22:36 33.64462 -118.08276 19613 ft 380 kts 88°
2026-05-07 22:36 33.64458 -118.05089 20176 ft 384 kts 88°
2026-05-07 22:37 33.64455 -118.01862 20733 ft 388 kts 88°
2026-05-07 22:37 33.64453 -117.98610 21275 ft 392 kts 88°
2026-05-07 22:37 33.64450 -117.95368 21810 ft 396 kts 88°
2026-05-07 22:37 33.64445 -117.92052 22324 ft 399 kts 88°
2026-05-07 22:38 33.64437 -117.88696 22832 ft 403 kts 88°
2026-05-07 22:38 33.64429 -117.85315 23339 ft 407 kts 88°
2026-05-07 22:38 33.64414 -117.81903 23788 ft 411 kts 90°
2026-05-07 22:38 33.64093 -117.78473 24203 ft 417 kts 99°
2026-05-07 22:39 33.63331 -117.75093 24628 ft 421 kts 104°
2026-05-07 22:39 33.62491 -117.71714 25050 ft 423 kts 104°
2026-05-07 22:39 33.61653 -117.68330 25454 ft 425 kts 104°
2026-05-07 22:39 33.60813 -117.64919 25853 ft 427 kts 104°
2026-05-07 22:40 33.59968 -117.61490 26247 ft 430 kts 104°
2026-05-07 22:40 33.59120 -117.58047 26634 ft 432 kts 104°
2026-05-07 22:40 33.58263 -117.54571 27025 ft 434 kts 104°
2026-05-07 22:40 33.57402 -117.51089 27409 ft 437 kts 104°
2026-05-07 22:41 33.56535 -117.47598 27793 ft 439 kts 104°
2026-05-07 22:41 33.55659 -117.44077 28136 ft 442 kts 104°
2026-05-07 22:41 33.54775 -117.40533 28495 ft 445 kts 104°
2026-05-07 22:41 33.53884 -117.36960 28891 ft 447 kts 104°
2026-05-07 22:42 33.52993 -117.33384 29280 ft 449 kts 104°
2026-05-07 22:42 33.52110 -117.29840 29639 ft 451 kts 104°
2026-05-07 22:42 33.51213 -117.26228 29988 ft 453 kts 103°
2026-05-07 22:42 33.50589 -117.22536 30290 ft 452 kts 94°
2026-05-07 22:43 33.50423 -117.18781 30598 ft 451 kts 88°
2026-05-07 22:43 33.50389 -117.15025 30959 ft 451 kts 88°
2026-05-07 22:43 33.50343 -117.11262 31309 ft 452 kts 88°
2026-05-07 22:43 33.50291 -117.07503 31693 ft 451 kts 88°
2026-05-07 22:44 33.50234 -117.03745 32113 ft 449 kts 88°
2026-05-07 22:44 33.50176 -117.00008 32543 ft 448 kts 88°
2026-05-07 22:44 33.50119 -116.96292 32962 ft 446 kts 88°
2026-05-07 22:44 33.50061 -116.92572 33395 ft 445 kts 88°
2026-05-07 22:45 33.50005 -116.88874 33844 ft 443 kts 88°
2026-05-07 22:45 33.49951 -116.85191 34263 ft 441 kts 88°
2026-05-07 22:45 33.49896 -116.81521 34631 ft 440 kts 88°
2026-05-07 22:45 33.49838 -116.77854 34978 ft 440 kts 88°
2026-05-07 22:46 33.49778 -116.74190 35296 ft 440 kts 88°
2026-05-07 22:46 33.49717 -116.70573 35605 ft 440 kts 88°
2026-05-07 22:46 33.49652 -116.66906 35912 ft 440 kts 88°
2026-05-07 22:46 33.49586 -116.63246 36204 ft 441 kts 88°
2026-05-07 22:47 33.49521 -116.59567 36472 ft 441 kts 88°
2026-05-07 22:47 33.49457 -116.55893 36757 ft 442 kts 88°
2026-05-07 22:47 33.49393 -116.52206 37032 ft 442 kts 88°
2026-05-07 22:47 33.49327 -116.48523 37249 ft 442 kts 88°
2026-05-07 22:48 33.49257 -116.44836 37513 ft 443 kts 88°
2026-05-07 22:48 33.49184 -116.41150 37767 ft 443 kts 88°
2026-05-07 22:48 33.49120 -116.37466 37958 ft 442 kts 87°
2026-05-07 22:48 33.49067 -116.33780 38211 ft 443 kts 87°
2026-05-07 22:49 33.49022 -116.30091 38475 ft 443 kts 87°
2026-05-07 22:49 33.48979 -116.26393 38693 ft 443 kts 87°
2026-05-07 22:49 33.48932 -116.22697 38813 ft 444 kts 88°
2026-05-07 22:50 33.48815 -116.15261 38866 ft 447 kts 88°
2026-05-07 22:50 33.48682 -116.07870 38865 ft 447 kts 87°
2026-05-07 22:51 33.49462 -116.00581 38866 ft 439 kts 70°
2026-05-07 22:51 33.51452 -115.93688 38882 ft 437 kts 68°
2026-05-07 22:52 33.53463 -115.86842 38874 ft 435 kts 68°
2026-05-07 22:52 33.55463 -115.79997 38878 ft 434 kts 68°
2026-05-07 22:53 33.57452 -115.73156 38889 ft 434 kts 68°
2026-05-07 22:53 33.59438 -115.66313 38890 ft 434 kts 68°
2026-05-07 22:54 33.61415 -115.59470 38886 ft 434 kts 68°
2026-05-07 22:54 33.62222 -115.55982 38885 ft 436 kts 80°
2026-05-07 22:54 33.62312 -115.52327 38892 ft 441 kts 89°
2026-05-07 22:55 33.62093 -115.45020 38339 ft 440 kts 89°
2026-05-07 22:55 33.61959 -115.41354 37738 ft 439 kts 89°
2026-05-07 22:55 33.61824 -115.37695 37138 ft 439 kts 89°
2026-05-07 22:55 33.61692 -115.34041 36547 ft 438 kts 89°
2026-05-07 22:56 33.61564 -115.30398 36168 ft 437 kts 89°
2026-05-07 22:56 33.61438 -115.26761 35789 ft 436 kts 89°
2026-05-07 22:56 33.61355 -115.24311 35532 ft 436 kts 89°
2026-05-07 22:56 33.61233 -115.20679 35168 ft 435 kts 89°
2026-05-07 22:57 33.61109 -115.17053 34801 ft 435 kts 89°
2026-05-07 22:57 33.60983 -115.13430 34448 ft 434 kts 89°
2026-05-07 22:57 33.60853 -115.09860 34086 ft 434 kts 89°
2026-05-07 22:57 33.60722 -115.06245 33714 ft 434 kts 89°
2026-05-07 22:58 33.60591 -115.02630 33307 ft 434 kts 89°
2026-05-07 22:58 33.60460 -114.99007 32946 ft 435 kts 88°
2026-05-07 22:58 33.60331 -114.95375 32553 ft 436 kts 88°
2026-05-07 22:58 33.60199 -114.91734 32165 ft 438 kts 88°
2026-05-07 22:59 33.60063 -114.88074 31785 ft 439 kts 88°
2026-05-07 22:59 33.59925 -114.84410 31402 ft 440 kts 88°
2026-05-07 22:59 33.59784 -114.80734 31035 ft 442 kts 88°
2026-05-07 22:59 33.59617 -114.77045 30668 ft 445 kts 91°
2026-05-07 23:00 33.59082 -114.73358 30303 ft 451 kts 98°
2026-05-07 23:00 33.58366 -114.69692 29947 ft 452 kts 98°
2026-05-07 23:00 33.57649 -114.66013 29536 ft 454 kts 98°
2026-05-07 23:00 33.56931 -114.62324 29119 ft 455 kts 99°
2026-05-07 23:01 33.56213 -114.58636 28721 ft 456 kts 99°
2026-05-07 23:01 33.55491 -114.54923 28328 ft 457 kts 99°
2026-05-07 23:01 33.54768 -114.51211 27925 ft 458 kts 99°
2026-05-07 23:01 33.54042 -114.47492 27537 ft 459 kts 99°
2026-05-07 23:02 33.53314 -114.43765 27155 ft 460 kts 99°
2026-05-07 23:02 33.52583 -114.40033 26776 ft 460 kts 99°
2026-05-07 23:02 33.51847 -114.36294 26411 ft 461 kts 99°
2026-05-07 23:02 33.51115 -114.32594 26047 ft 462 kts 99°
2026-05-07 23:03 33.50375 -114.28856 25688 ft 463 kts 99°
2026-05-07 23:03 33.49634 -114.25103 25333 ft 463 kts 99°
2026-05-07 23:03 33.48892 -114.21345 24992 ft 460 kts 99°
2026-05-07 23:03 33.48165 -114.17696 24857 ft 440 kts 99°
2026-05-07 23:04 33.47467 -114.14221 24890 ft 419 kts 99°
2026-05-07 23:04 33.46798 -114.10895 24891 ft 405 kts 99°
2026-05-07 23:04 33.46146 -114.07630 24893 ft 402 kts 99°
2026-05-07 23:04 33.45498 -114.04383 24896 ft 400 kts 99°
2026-05-07 23:05 33.44854 -114.01146 24891 ft 399 kts 99°
2026-05-07 23:05 33.44211 -113.97914 24894 ft 399 kts 99°
2026-05-07 23:05 33.43563 -113.94675 24899 ft 399 kts 99°
2026-05-07 23:05 33.42912 -113.91436 24480 ft 399 kts 99°
2026-05-07 23:06 33.42266 -113.88226 24031 ft 396 kts 99°
2026-05-07 23:06 33.41623 -113.85022 23584 ft 394 kts 99°
2026-05-07 23:06 33.40983 -113.81841 23058 ft 392 kts 99°
2026-05-07 23:06 33.40344 -113.78674 22548 ft 391 kts 99°
2026-05-07 23:07 33.39707 -113.75520 22080 ft 388 kts 99°
2026-05-07 23:07 33.39077 -113.72409 21829 ft 381 kts 99°
2026-05-07 23:07 33.38455 -113.69345 21575 ft 377 kts 99°
2026-05-07 23:07 33.37848 -113.66345 21326 ft 375 kts 99°
2026-05-07 23:08 33.37236 -113.63320 21074 ft 373 kts 99°
2026-05-07 23:08 33.36624 -113.60305 20821 ft 373 kts 99°
2026-05-07 23:08 33.36015 -113.57301 20569 ft 371 kts 99°
2026-05-07 23:08 33.35408 -113.54312 20323 ft 369 kts 99°
2026-05-07 23:09 33.34799 -113.51328 20080 ft 368 kts 99°
2026-05-07 23:09 33.34192 -113.48364 19829 ft 366 kts 99°
2026-05-07 23:09 33.33589 -113.45410 19577 ft 365 kts 99°
2026-05-07 23:09 33.33034 -113.42459 19300 ft 363 kts 98°
2026-05-07 23:10 33.32523 -113.39513 19061 ft 361 kts 98°
2026-05-07 23:10 33.32033 -113.36572 18827 ft 360 kts 97°
2026-05-07 23:10 33.31553 -113.33667 18579 ft 351 kts 97°
2026-05-07 23:10 33.31081 -113.30850 18361 ft 342 kts 98°
2026-05-07 23:11 33.30609 -113.28073 18128 ft 339 kts 98°
2026-05-07 23:11 33.30136 -113.25324 17865 ft 337 kts 98°
2026-05-07 23:11 33.29669 -113.22623 17603 ft 335 kts 98°
2026-05-07 23:11 33.29237 -113.19890 17343 ft 334 kts 97°
2026-05-07 23:12 33.28844 -113.17160 17085 ft 333 kts 96°
2026-05-07 23:12 33.28465 -113.14437 16829 ft 331 kts 96°
2026-05-07 23:12 33.28090 -113.11725 16575 ft 330 kts 96°
2026-05-07 23:12 33.27711 -113.09028 16328 ft 327 kts 97°
2026-05-07 23:13 33.27447 -113.06349 16092 ft 322 kts 88°
2026-05-07 23:13 33.27505 -113.03687 15920 ft 320 kts 85°
2026-05-07 23:13 33.27580 -113.01030 15721 ft 320 kts 85°
2026-05-07 23:13 33.27652 -112.98380 15482 ft 318 kts 85°
2026-05-07 23:14 33.27720 -112.95742 15241 ft 317 kts 85°
2026-05-07 23:14 33.27786 -112.93112 15000 ft 316 kts 85°
2026-05-07 23:14 33.27850 -112.90494 14763 ft 315 kts 85°
2026-05-07 23:14 33.27914 -112.87872 14527 ft 315 kts 85°
2026-05-07 23:15 33.27976 -112.85261 14292 ft 314 kts 86°
2026-05-07 23:15 33.28037 -112.82666 14059 ft 313 kts 85°
2026-05-07 23:15 33.28165 -112.80079 13828 ft 311 kts 83°
2026-05-07 23:15 33.28386 -112.77512 13600 ft 310 kts 81°
2026-05-07 23:16 33.28647 -112.74963 13352 ft 308 kts 80°
2026-05-07 23:16 33.28917 -112.72420 13223 ft 309 kts 80°
2026-05-07 23:16 33.29180 -112.69874 13064 ft 308 kts 81°
2026-05-07 23:16 33.29435 -112.67323 12912 ft 308 kts 81°
2026-05-07 23:17 33.29681 -112.64783 12759 ft 308 kts 81°
2026-05-07 23:17 33.29922 -112.62269 12607 ft 308 kts 81°
2026-05-07 23:17 33.30162 -112.59729 12453 ft 307 kts 81°
2026-05-07 23:17 33.30399 -112.57190 12297 ft 307 kts 81°
2026-05-07 23:18 33.30633 -112.54659 12146 ft 307 kts 82°
2026-05-07 23:18 33.30866 -112.52124 11993 ft 307 kts 81°
2026-05-07 23:18 33.31097 -112.49584 11848 ft 306 kts 82°
2026-05-07 23:18 33.31327 -112.47060 11702 ft 306 kts 82°
2026-05-07 23:19 33.31557 -112.44531 11552 ft 307 kts 82°
2026-05-07 23:19 33.31788 -112.41993 11406 ft 307 kts 82°
2026-05-07 23:19 33.32019 -112.39450 11257 ft 307 kts 82°
2026-05-07 23:19 33.32250 -112.36924 11118 ft 306 kts 82°
2026-05-07 23:20 33.32482 -112.34394 10964 ft 306 kts 82°
2026-05-07 23:20 33.32718 -112.31862 10778 ft 305 kts 82°
2026-05-07 23:20 33.32951 -112.29340 10578 ft 305 kts 82°
2026-05-07 23:20 33.33181 -112.26817 10386 ft 305 kts 82°
2026-05-07 23:21 33.33411 -112.24298 10194 ft 305 kts 82°
2026-05-07 23:21 33.33640 -112.21782 9997 ft 304 kts 83°
2026-05-07 23:21 33.33866 -112.19283 9811 ft 299 kts 82°
2026-05-07 23:21 33.34084 -112.16847 9610 ft 290 kts 82°
2026-05-07 23:22 33.34292 -112.14491 9432 ft 282 kts 82°
2026-05-07 23:22 33.34498 -112.12190 9241 ft 275 kts 82°
2026-05-07 23:22 33.34701 -112.09934 9039 ft 270 kts 82°
2026-05-07 23:22 33.34753 -112.07704 8822 ft 267 kts 88°
2026-05-07 23:23 33.34732 -112.05491 8548 ft 265 kts 89°
2026-05-07 23:23 33.34700 -112.03314 8279 ft 264 kts 89°
2026-05-07 23:23 33.34666 -112.01127 8008 ft 263 kts 89°
2026-05-07 23:23 33.34633 -111.98942 7740 ft 261 kts 89°
2026-05-07 23:24 33.34603 -111.96772 7424 ft 261 kts 90°
2026-05-07 23:24 33.34573 -111.94589 6987 ft 261 kts 90°
2026-05-07 23:24 33.34554 -111.92438 6561 ft 256 kts 90°
2026-05-07 23:24 33.34558 -111.90344 6317 ft 246 kts 90°
2026-05-07 23:25 33.34572 -111.88326 6071 ft 241 kts 89°
2026-05-07 23:25 33.34589 -111.86328 5828 ft 240 kts 89°
2026-05-07 23:25 33.34609 -111.84331 5584 ft 240 kts 89°
2026-05-07 23:25 33.34635 -111.82335 5346 ft 239 kts 89°
2026-05-07 23:26 33.34662 -111.80350 5104 ft 238 kts 89°
2026-05-07 23:26 33.34720 -111.78367 4871 ft 242 kts 82°
2026-05-07 23:26 33.35368 -111.76523 4638 ft 243 kts 48°
2026-05-07 23:26 33.36683 -111.75375 4379 ft 237 kts 17°
2026-05-07 23:27 33.39912 -111.75000 3998 ft 233 kts 353°
2026-05-07 23:27 33.41455 -111.75446 3990 ft 228 kts 332°
2026-05-07 23:27 33.42752 -111.76504 3999 ft 224 kts 311°
2026-05-07 23:28 33.43644 -111.78013 3998 ft 221 kts 291°
2026-05-07 23:28 33.44029 -111.79782 3993 ft 222 kts 272°
2026-05-07 23:28 33.44046 -111.81650 3853 ft 225 kts 269°
2026-05-07 23:28 33.44049 -111.83511 3604 ft 222 kts 269°
2026-05-07 23:29 33.44053 -111.85320 3334 ft 212 kts 269°
2026-05-07 23:29 33.44058 -111.87049 3075 ft 204 kts 269°
2026-05-07 23:29 33.44062 -111.88694 2811 ft 192 kts 269°
2026-05-07 23:29 33.44065 -111.90277 2559 ft 191 kts 270°
2026-05-07 23:30 33.44068 -111.91852 2313 ft 183 kts 270°
2026-05-07 23:30 33.44072 -111.93307 2106 ft 166 kts 270°
2026-05-07 23:30 33.44074 -111.94613 1923 ft 152 kts 270°
2026-05-07 23:30 33.44076 -111.95863 1729 ft 147 kts 271°
2026-05-07 23:31 33.44078 -111.97067 1537 ft 145 kts 272°
2026-05-07 23:31 33.44082 -111.98273 1336 ft 146 kts 272°
2026-05-07 23:31 33.44083 -111.99489 1149 ft 144 kts 272°
2026-05-07 23:31 33.44086 -112.00445 1130 ft 60 kts 270°
2026-05-07 23:32 33.44066 -112.00694 1135 ft 15 kts 237°
2026-05-07 23:32 33.43986 -112.00737 1134 ft 5 kts 180°
2026-05-07 23:32 33.43983 -112.00737 1134 ft 0 kts 180°
2026-05-07 23:34 33.43969 -112.00730 1134 ft 3 kts 140°
2026-05-07 23:34 33.43970 -112.00686 1131 ft 8 kts 83°
2026-05-07 23:34 33.43975 -112.00600 1134 ft 12 kts 90°
2026-05-07 23:34 33.43975 -112.00509 1133 ft 9 kts 90°
2026-05-07 23:35 33.43974 -112.00425 1133 ft 11 kts 91°
2026-05-07 23:35 33.43914 -112.00382 1135 ft 11 kts 181°
2026-05-07 23:35 33.43849 -112.00382 1134 ft 8 kts 179°
2026-05-07 23:35 33.43813 -112.00368 1132 ft 3 kts 104°
2026-05-07 23:36 33.43812 -112.00333 1131 ft 5 kts 86°
2026-05-07 23:36 33.43808 -112.00285 1131 ft 7 kts 107°
2026-05-07 23:36 33.43798 -112.00247 1131 ft 4 kts 106°
2026-05-07 23:36 33.43797 -112.00244 1131 ft 0 kts 106°